KOA185 YMML-YSSY

Flight info

Callsign KOA185
Flight time 1h 0m
Altitude 39000
Route DCT ML H129 DOSEL Y59 RIVET RIVET4
Aircraft A20N/M-SDE2E3FGHIJ1RWXY/LB1

Departure

Time 2026-04-23 11:26
Airport Melbourne Airport (YMML)

Arrival

Time 2026-04-23 12:27
Airport Sydney Kingsford Smith International Airport (YSSY)
Time Latitude Longitude Altitude Speed Heading
2026-04-23 11:10 -37.67538 144.84744 351 ft 0 kts 172°
2026-04-23 11:18 -37.67526 144.84742 353 ft 2 kts 172°
2026-04-23 11:18 -37.67510 144.84739 352 ft 2 kts 174°
2026-04-23 11:18 -37.67494 144.84738 352 ft 2 kts 177°
2026-04-23 11:18 -37.67477 144.84737 352 ft 2 kts 181°
2026-04-23 11:19 -37.67461 144.84738 355 ft 2 kts 188°
2026-04-23 11:19 -37.67445 144.84743 355 ft 2 kts 208°
2026-04-23 11:19 -37.67433 144.84757 357 ft 2 kts 249°
2026-04-23 11:19 -37.67431 144.84768 360 ft 0 kts 259°
2026-04-23 11:20 -37.67430 144.84768 360 ft 0 kts 259°
2026-04-23 11:22 -37.67431 144.84768 360 ft 0 kts 259°
2026-04-23 11:23 -37.67432 144.84758 356 ft 3 kts 259°
2026-04-23 11:23 -37.67439 144.84707 358 ft 9 kts 259°
2026-04-23 11:23 -37.67452 144.84608 359 ft 14 kts 261°
2026-04-23 11:23 -37.67469 144.84473 364 ft 18 kts 261°
2026-04-23 11:24 -37.67560 144.84367 359 ft 22 kts 201°
2026-04-23 11:24 -37.67736 144.84376 359 ft 29 kts 172°
2026-04-23 11:24 -37.67868 144.84222 350 ft 29 kts 259°
2026-04-23 11:24 -37.67879 144.84129 352 ft 0 kts 263°
2026-04-23 11:25 -37.67879 144.84124 353 ft 0 kts 263°
2026-04-23 11:25 -37.67880 144.84118 354 ft 2 kts 263°
2026-04-23 11:25 -37.67884 144.84073 354 ft 9 kts 264°
2026-04-23 11:25 -37.67854 144.83977 353 ft 15 kts 324°
2026-04-23 11:26 -37.67621 144.83917 360 ft 72 kts 351°
2026-04-23 11:26 -37.66885 144.83779 385 ft 139 kts 352°
2026-04-23 11:26 -37.65839 144.83612 888 ft 157 kts 354°
2026-04-23 11:26 -37.64766 144.83425 1750 ft 159 kts 352°
2026-04-23 11:27 -37.63660 144.83182 2514 ft 167 kts 351°
2026-04-23 11:27 -37.62439 144.82922 2989 ft 188 kts 352°
2026-04-23 11:27 -37.61081 144.82653 3487 ft 208 kts 353°
2026-04-23 11:27 -37.59582 144.82464 3980 ft 226 kts
2026-04-23 11:28 -37.58009 144.82918 4570 ft 238 kts 25°
2026-04-23 11:28 -37.56509 144.83859 5313 ft 248 kts 27°
2026-04-23 11:28 -37.54900 144.84856 5909 ft 264 kts 26°
2026-04-23 11:28 -37.53238 144.85869 6864 ft 267 kts 26°
2026-04-23 11:29 -37.51546 144.86893 7732 ft 272 kts 26°
2026-04-23 11:29 -37.49827 144.87934 8622 ft 276 kts 26°
2026-04-23 11:29 -37.48084 144.88989 9523 ft 280 kts 26°
2026-04-23 11:29 -37.46312 144.90063 10381 ft 287 kts 26°
2026-04-23 11:30 -37.44502 144.91342 10720 ft 311 kts 35°
2026-04-23 11:30 -37.42832 144.93206 11021 ft 333 kts 49°
2026-04-23 11:30 -37.41446 144.95579 11727 ft 339 kts 55°
2026-04-23 11:30 -37.40086 144.98028 12478 ft 344 kts 55°
2026-04-23 11:31 -37.38693 145.00503 13230 ft 350 kts 55°
2026-04-23 11:31 -37.37270 145.03018 13973 ft 356 kts 55°
2026-04-23 11:31 -37.35825 145.05567 14682 ft 360 kts 55°
2026-04-23 11:31 -37.34365 145.08144 15372 ft 364 kts 55°
2026-04-23 11:32 -37.32888 145.10751 16051 ft 368 kts 55°
2026-04-23 11:32 -37.31896 145.12499 16430 ft 374 kts 55°
2026-04-23 11:32 -37.30349 145.15227 16634 ft 392 kts 55°
2026-04-23 11:32 -37.28730 145.18080 16815 ft 409 kts 55°
2026-04-23 11:33 -37.27045 145.21049 16992 ft 425 kts 55°
2026-04-23 11:33 -37.25310 145.24106 17378 ft 434 kts 55°
2026-04-23 11:33 -37.23550 145.27196 17982 ft 437 kts 55°
2026-04-23 11:33 -37.21770 145.30316 18538 ft 442 kts 55°
2026-04-23 11:34 -37.19976 145.33461 19056 ft 445 kts 55°
2026-04-23 11:34 -37.18168 145.36627 19570 ft 448 kts 55°
2026-04-23 11:34 -37.16346 145.39816 20067 ft 451 kts 55°
2026-04-23 11:34 -37.14505 145.43027 20559 ft 455 kts 55°
2026-04-23 11:35 -37.12652 145.46251 21045 ft 458 kts 55°
2026-04-23 11:35 -37.10783 145.49504 21521 ft 462 kts 56°
2026-04-23 11:35 -37.08902 145.52782 22001 ft 465 kts 56°
2026-04-23 11:35 -37.07006 145.56080 22458 ft 468 kts 56°
2026-04-23 11:36 -37.05098 145.59398 22926 ft 471 kts 56°
2026-04-23 11:36 -37.03172 145.62743 23364 ft 475 kts 56°
2026-04-23 11:36 -37.01234 145.66105 23799 ft 478 kts 56°
2026-04-23 11:36 -36.99286 145.69482 24194 ft 481 kts 56°
2026-04-23 11:37 -36.97321 145.72883 24543 ft 483 kts 56°
2026-04-23 11:37 -36.95349 145.76295 24976 ft 483 kts 56°
2026-04-23 11:37 -36.93409 145.79642 26007 ft 467 kts 56°
2026-04-23 11:37 -36.91536 145.82868 27160 ft 450 kts 57°
2026-04-23 11:38 -36.89712 145.86013 27886 ft 447 kts 57°
2026-04-23 11:38 -36.87881 145.89177 28187 ft 451 kts 57°
2026-04-23 11:38 -36.86034 145.92364 28521 ft 454 kts 57°
2026-04-23 11:38 -36.84175 145.95566 28881 ft 457 kts 57°
2026-04-23 11:39 -36.82303 145.98786 29213 ft 459 kts 57°
2026-04-23 11:39 -36.80420 146.02017 29546 ft 462 kts 57°
2026-04-23 11:39 -36.78523 146.05268 29861 ft 465 kts 57°
2026-04-23 11:39 -36.76617 146.08533 30175 ft 467 kts 57°
2026-04-23 11:40 -36.74698 146.11816 30477 ft 470 kts 58°
2026-04-23 11:40 -36.72769 146.15114 30751 ft 472 kts 58°
2026-04-23 11:40 -36.70832 146.18422 31035 ft 474 kts 58°
2026-04-23 11:40 -36.68883 146.21746 31318 ft 476 kts 58°
2026-04-23 11:41 -36.66928 146.25080 31606 ft 477 kts 58°
2026-04-23 11:41 -36.64969 146.28414 31955 ft 477 kts 58°
2026-04-23 11:41 -36.63013 146.31741 32347 ft 476 kts 58°
2026-04-23 11:41 -36.61054 146.35066 32723 ft 475 kts 58°
2026-04-23 11:42 -36.59103 146.38376 33088 ft 474 kts 58°
2026-04-23 11:42 -36.57150 146.41688 33430 ft 474 kts 58°
2026-04-23 11:42 -36.55200 146.44993 33763 ft 473 kts 59°
2026-04-23 11:42 -36.53253 146.48291 34091 ft 473 kts 59°
2026-04-23 11:43 -36.51308 146.51580 34406 ft 472 kts 59°
2026-04-23 11:43 -36.49364 146.54866 34695 ft 472 kts 59°
2026-04-23 11:43 -36.47416 146.58154 34939 ft 472 kts 59°
2026-04-23 11:43 -36.45472 146.61433 35187 ft 472 kts 59°
2026-04-23 11:44 -36.43526 146.64713 35418 ft 471 kts 59°
2026-04-23 11:44 -36.41582 146.67986 35660 ft 471 kts 59°
2026-04-23 11:44 -36.39634 146.71262 35886 ft 471 kts 59°
2026-04-23 11:44 -36.37689 146.74530 36111 ft 471 kts 59°
2026-04-23 11:45 -36.35743 146.77796 36319 ft 471 kts 59°
2026-04-23 11:45 -36.33794 146.81065 36529 ft 471 kts 59°
2026-04-23 11:45 -36.31846 146.84328 36750 ft 471 kts 59°
2026-04-23 11:45 -36.29895 146.87593 36972 ft 470 kts 59°
2026-04-23 11:46 -36.27950 146.90846 37175 ft 470 kts 59°
2026-04-23 11:46 -36.26004 146.94097 37354 ft 470 kts 59°
2026-04-23 11:46 -36.24056 146.97349 37542 ft 470 kts 59°
2026-04-23 11:46 -36.22108 147.00597 37717 ft 470 kts 59°
2026-04-23 11:47 -36.20158 147.03848 37855 ft 470 kts 59°
2026-04-23 11:47 -36.18207 147.07096 38017 ft 470 kts 59°
2026-04-23 11:47 -36.16254 147.10344 38185 ft 470 kts 59°
2026-04-23 11:47 -36.14301 147.13586 38396 ft 470 kts 59°
2026-04-23 11:48 -36.12348 147.16825 38552 ft 470 kts 59°
2026-04-23 11:48 -36.10392 147.20068 38699 ft 470 kts 59°
2026-04-23 11:48 -36.08439 147.23302 38855 ft 469 kts 59°
2026-04-23 11:49 -36.04553 147.29731 39068 ft 471 kts 59°
2026-04-23 11:49 -36.02591 147.32973 39177 ft 471 kts 59°
2026-04-23 11:49 -36.00632 147.36205 39286 ft 470 kts 58°
2026-04-23 11:49 -35.98668 147.39442 39413 ft 470 kts 58°
2026-04-23 11:50 -35.96705 147.42675 39450 ft 472 kts 58°
2026-04-23 11:50 -35.92748 147.49187 39452 ft 477 kts 58°
2026-04-23 11:51 -35.88739 147.55768 39462 ft 482 kts 58°
2026-04-23 11:51 -35.84690 147.62402 39467 ft 486 kts 58°
2026-04-23 11:52 -35.80611 147.69070 39466 ft 489 kts 58°
2026-04-23 11:52 -35.76505 147.75762 39469 ft 490 kts 57°
2026-04-23 11:53 -35.72378 147.82458 39481 ft 491 kts 58°
2026-04-23 11:53 -35.68265 147.89179 39479 ft 492 kts 58°
2026-04-23 11:54 -35.64131 147.95898 39479 ft 493 kts 58°
2026-04-23 11:54 -35.59979 148.02621 39479 ft 493 kts 58°
2026-04-23 11:55 -35.55833 148.09320 39491 ft 493 kts 58°
2026-04-23 11:55 -35.51674 148.16027 39500 ft 493 kts 58°
2026-04-23 11:56 -35.47511 148.22730 39498 ft 494 kts 58°
2026-04-23 11:56 -35.43342 148.29428 39499 ft 494 kts 58°
2026-04-23 11:57 -35.39174 148.36108 39496 ft 493 kts 58°
2026-04-23 11:57 -35.35004 148.42784 39505 ft 493 kts 57°
2026-04-23 11:58 -35.30830 148.49454 39515 ft 494 kts 57°
2026-04-23 11:58 -35.26649 148.56119 39503 ft 493 kts 57°
2026-04-23 11:59 -35.22467 148.62773 39505 ft 493 kts 57°
2026-04-23 11:59 -35.18286 148.69415 39508 ft 493 kts 57°
2026-04-23 12:00 -35.14104 148.76046 39519 ft 493 kts 57°
2026-04-23 12:00 -35.09915 148.82674 39514 ft 493 kts 57°
2026-04-23 12:01 -35.05724 148.89293 39513 ft 493 kts 57°
2026-04-23 12:01 -35.01539 148.95887 39331 ft 483 kts 57°
2026-04-23 12:01 -34.99503 148.99083 39080 ft 472 kts 57°
2026-04-23 12:02 -34.97514 149.02206 38787 ft 461 kts 57°
2026-04-23 12:02 -34.95570 149.05260 38525 ft 451 kts 57°
2026-04-23 12:02 -34.93668 149.08245 38248 ft 441 kts 57°
2026-04-23 12:02 -34.91809 149.11163 37970 ft 431 kts 57°
2026-04-23 12:03 -34.89991 149.14012 37699 ft 421 kts 57°
2026-04-23 12:03 -34.88195 149.16831 37423 ft 425 kts 57°
2026-04-23 12:03 -34.86361 149.19715 37162 ft 436 kts 57°
2026-04-23 12:03 -34.84474 149.22677 36909 ft 448 kts 57°
2026-04-23 12:04 -34.82535 149.25712 36662 ft 460 kts 57°
2026-04-23 12:04 -34.80551 149.28811 36420 ft 468 kts 56°
2026-04-23 12:04 -34.78543 149.31938 36167 ft 468 kts 56°
2026-04-23 12:04 -34.76541 149.35048 35920 ft 466 kts 56°
2026-04-23 12:05 -34.74581 149.38175 35467 ft 465 kts 60°
2026-04-23 12:05 -34.72877 149.41508 34753 ft 464 kts 66°
2026-04-23 12:05 -34.71373 149.44985 33871 ft 466 kts 66°
2026-04-23 12:05 -34.69865 149.48481 33013 ft 467 kts 66°
2026-04-23 12:06 -34.68350 149.51982 32231 ft 469 kts 66°
2026-04-23 12:06 -34.66824 149.55491 31544 ft 470 kts 65°
2026-04-23 12:06 -34.63761 149.62507 30462 ft 469 kts 64°
2026-04-23 12:07 -34.62237 149.65993 29841 ft 466 kts 64°
2026-04-23 12:07 -34.60720 149.69449 29151 ft 462 kts 64°
2026-04-23 12:07 -34.59215 149.72871 28588 ft 458 kts 64°
2026-04-23 12:07 -34.57719 149.76270 28018 ft 456 kts 64°
2026-04-23 12:08 -34.56227 149.79659 27424 ft 453 kts 64°
2026-04-23 12:08 -34.54749 149.83013 26850 ft 449 kts 64°
2026-04-23 12:08 -34.53283 149.86334 26276 ft 444 kts 63°
2026-04-23 12:08 -34.51833 149.89616 25708 ft 440 kts 63°
2026-04-23 12:09 -34.50414 149.92823 25149 ft 435 kts 63°
2026-04-23 12:09 -34.48991 149.96041 24575 ft 431 kts 63°
2026-04-23 12:09 -34.47581 149.99227 23983 ft 427 kts 63°
2026-04-23 12:09 -34.46156 150.02448 23395 ft 446 kts 63°
2026-04-23 12:10 -34.44648 150.05859 22779 ft 471 kts 63°
2026-04-23 12:10 -34.43088 150.09376 22142 ft 474 kts 63°
2026-04-23 12:10 -34.41536 150.12866 21518 ft 468 kts 63°
2026-04-23 12:10 -34.40003 150.16310 20891 ft 463 kts 63°
2026-04-23 12:11 -34.38480 150.19728 20267 ft 460 kts 63°
2026-04-23 12:11 -34.36970 150.23123 19653 ft 456 kts 64°
2026-04-23 12:11 -34.35476 150.26481 19010 ft 451 kts 64°
2026-04-23 12:11 -34.33994 150.29805 18366 ft 447 kts 64°
2026-04-23 12:12 -34.32524 150.33099 17748 ft 443 kts 64°
2026-04-23 12:12 -34.31062 150.36366 17142 ft 439 kts 64°
2026-04-23 12:12 -34.29634 150.39555 16898 ft 423 kts 64°
2026-04-23 12:12 -34.28260 150.42615 16701 ft 405 kts 64°
2026-04-23 12:13 -34.26945 150.45548 16442 ft 390 kts 64°
2026-04-23 12:13 -34.25668 150.48404 15919 ft 383 kts 64°
2026-04-23 12:13 -34.24408 150.51227 15342 ft 379 kts 64°
2026-04-23 12:13 -34.23162 150.54014 14752 ft 375 kts 64°
2026-04-23 12:14 -34.21928 150.56772 14179 ft 371 kts 64°
2026-04-23 12:14 -34.20706 150.59498 13548 ft 367 kts 64°
2026-04-23 12:14 -34.19495 150.62198 12933 ft 364 kts 64°
2026-04-23 12:14 -34.18294 150.64875 12326 ft 361 kts 64°
2026-04-23 12:15 -34.17102 150.67526 11737 ft 358 kts 64°
2026-04-23 12:15 -34.15917 150.70153 11175 ft 355 kts 63°
2026-04-23 12:15 -34.14756 150.72725 10949 ft 341 kts 64°
2026-04-23 12:15 -34.13646 150.75187 10812 ft 327 kts 64°
2026-04-23 12:16 -34.12583 150.77543 10682 ft 313 kts 64°
2026-04-23 12:16 -34.11891 150.79077 10603 ft 303 kts 64°
2026-04-23 12:16 -34.10593 150.81953 10490 ft 285 kts 64°
2026-04-23 12:16 -34.09974 150.83324 10479 ft 280 kts 64°
2026-04-23 12:17 -34.09025 150.85440 10482 ft 285 kts 64°
2026-04-23 12:17 -34.08082 150.87541 10350 ft 285 kts 64°
2026-04-23 12:17 -34.07137 150.89644 9987 ft 286 kts 64°
2026-04-23 12:17 -34.06202 150.91724 9596 ft 285 kts 64°
2026-04-23 12:18 -34.05259 150.93815 9189 ft 283 kts 64°
2026-04-23 12:18 -34.04321 150.95892 8786 ft 281 kts 64°
2026-04-23 12:18 -34.03389 150.97958 8384 ft 279 kts 63°
2026-04-23 12:18 -34.02463 151.00008 7998 ft 278 kts 63°
2026-04-23 12:19 -34.01547 151.02046 7613 ft 276 kts 63°
2026-04-23 12:19 -34.00368 151.03855 7224 ft 277 kts 40°
2026-04-23 12:19 -33.98640 151.04872 6846 ft 279 kts 17°
2026-04-23 12:19 -33.96732 151.05315 6448 ft 279 kts 11°
2026-04-23 12:20 -33.94825 151.05683 6067 ft 277 kts 12°
2026-04-23 12:20 -33.92966 151.06134 5862 ft 265 kts 15°
2026-04-23 12:20 -33.91231 151.06644 5706 ft 250 kts 17°
2026-04-23 12:20 -33.89570 151.07187 5376 ft 246 kts 18°
2026-04-23 12:21 -33.87933 151.07753 4961 ft 244 kts 19°
2026-04-23 12:21 -33.86325 151.08372 4644 ft 240 kts 18°
2026-04-23 12:21 -33.84752 151.08865 4530 ft 227 kts 17°
2026-04-23 12:21 -33.83259 151.09329 4423 ft 215 kts 17°
2026-04-23 12:22 -33.81850 151.09795 4290 ft 206 kts 19°
2026-04-23 12:22 -33.80530 151.10366 4077 ft 197 kts 38°
2026-04-23 12:22 -33.79731 151.11566 3955 ft 178 kts 75°
2026-04-23 12:22 -33.79459 151.13029 3625 ft 179 kts 84°
2026-04-23 12:23 -33.79602 151.14472 3291 ft 178 kts 120°
2026-04-23 12:23 -33.80530 151.15452 3082 ft 190 kts 162°
2026-04-23 12:23 -33.81738 151.15543 3150 ft 163 kts 185°
2026-04-23 12:23 -33.82783 151.15318 2999 ft 141 kts 187°
2026-04-23 12:24 -33.83717 151.15164 3005 ft 136 kts 181°
2026-04-23 12:24 -33.84655 151.15158 2996 ft 133 kts 173°
2026-04-23 12:24 -33.85592 151.15288 2680 ft 146 kts 168°
2026-04-23 12:24 -33.86582 151.15462 2323 ft 140 kts 164°
2026-04-23 12:25 -33.87485 151.15686 2136 ft 129 kts 166°
2026-04-23 12:25 -33.88392 151.15929 1750 ft 132 kts 161°
2026-04-23 12:25 -33.89288 151.16168 1325 ft 137 kts 165°
2026-04-23 12:25 -33.90231 151.16462 874 ft 140 kts 165°
2026-04-23 12:26 -33.91165 151.16716 555 ft 135 kts 166°
2026-04-23 12:26 -33.92067 151.16937 281 ft 128 kts 166°
2026-04-23 12:26 -33.92920 151.17147 46 ft 122 kts 166°
2026-04-23 12:26 -33.93630 151.17335 16 ft 77 kts 166°
2026-04-23 12:27 -33.94025 151.17445 18 ft 51 kts 167°
2026-04-23 12:27 -33.94334 151.17561 27 ft 43 kts 152°
2026-04-23 12:27 -33.94472 151.17680 26 ft 0 kts 143°
2026-04-23 12:28 -33.94479 151.17686 27 ft 4 kts 142°
2026-04-23 12:28 -33.94509 151.17737 25 ft 11 kts 99°
2026-04-23 12:29 -33.94465 151.17775 24 ft 11 kts 358°
2026-04-23 12:29 -33.94360 151.17746 22 ft 21 kts 342°
2026-04-23 12:29 -33.94190 151.17692 21 ft 29 kts 347°
2026-04-23 12:29 -33.93975 151.17625 19 ft 35 kts 344°
2026-04-23 12:30 -33.93812 151.17700 19 ft 20 kts 88°
2026-04-23 12:30 -33.93834 151.17817 22 ft 13 kts 78°
2026-04-23 12:30 -33.93784 151.17847 26 ft 7 kts 336°
2026-04-23 12:30 -33.93744 151.17825 29 ft 6 kts 335°
2026-04-23 12:31 -33.93708 151.17808 30 ft 6 kts 341°
2026-04-23 12:31 -33.93655 151.17812 30 ft 9 kts 11°
2026-04-23 12:31 -33.93582 151.17818 30 ft 9 kts 332°
2026-04-23 12:31 -33.93567 151.17778 30 ft 0 kts 285°